Location: Ariel
(45.9570°N, 122.5700°W)
Time: 07:20:10
(UTC-07:00)

A-11 Canister half - Visible Passes

Search period start: 23 July 2019 00:00
Search period end: 02 August 2019 00:00
Orbit: 1526 x 1683 km, 47.3° (Epoch: 22 July)

Date Brightness Start Highest point End Pass type
(mag) Time Alt. Az. Time Alt. Az. Time Alt. Az.
23 Jul 9.0 00:46:28 10° W 00:56:27 85° N 01:06:04 10° E visible
23 Jul 8.9 02:51:50 10° WNW 03:01:23 61° SSW 03:10:35 10° SE visible
23 Jul 9.9 04:58:08 10° W 05:04:54 22° SW 05:11:33 10° S visible
23 Jul 9.1 22:19:15 10° WSW 22:29:21 86° SSE 22:39:09 10° ENE visible
24 Jul 9.0 00:24:47 10° W 00:34:47 85° N 00:44:26 10° E visible
24 Jul 8.9 02:30:10 10° WNW 02:39:46 63° SSW 02:49:02 10° SE visible
24 Jul 9.8 04:36:20 10° W 04:43:21 24° SW 04:50:16 10° S visible
24 Jul 9.1 21:57:35 10° WSW 22:07:42 85° SSE 22:17:32 10° ENE visible
25 Jul 9.1 00:03:05 10° W 00:13:08 84° N 00:22:48 10° E visible
25 Jul 8.9 02:08:30 10° WNW 02:18:10 65° SSW 02:27:29 10° SE visible
25 Jul 9.7 04:14:33 10° W 04:21:50 25° SW 04:28:57 10° S visible
25 Jul 9.1 21:35:56 10° WSW 21:46:03 83° SSE 21:55:54 10° ENE visible
25 Jul 9.1 23:41:25 10° W 23:51:28 84° N 00:01:10 10° E visible
26 Jul 8.9 01:46:49 10° WNW 01:56:33 68° SSW 02:05:56 10° SE visible
26 Jul 9.7 03:52:47 10° W 04:00:18 26° SW 04:07:38 10° S visible
26 Jul 9.2 21:14:15 10° WSW 21:24:24 82° SSE 21:34:16 10° ENE visible
26 Jul 9.1 23:19:43 10° W 23:29:48 83° N 23:39:32 10° E visible
27 Jul 8.9 01:25:09 10° WNW 01:34:57 69° SSW 01:44:22 10° SE visible
27 Jul 9.6 03:31:01 10° WNW 03:38:44 28° SW 03:46:18 10° S visible
27 Jul 9.1 22:58:01 10° W 23:08:08 83° N 23:17:53 10° E visible
28 Jul 8.9 01:03:29 10° WNW 01:13:19 71° SSW 01:21:00 17° SE visible
28 Jul 9.6 03:09:16 10° WNW 03:17:12 29° SW 03:19:02 28° SSW visible
28 Jul 9.2 22:36:20 10° W 22:46:28 83° N 22:56:15 10° E visible
29 Jul 8.9 00:41:48 10° WNW 00:51:42 73° SSW 00:58:06 24° SE visible
29 Jul 9.5 02:47:32 10° WNW 02:55:38 31° SW 02:56:15 31° SW visible
29 Jul 9.2 22:14:38 10° W 22:24:47 83° N 22:34:37 10° E visible
30 Jul 8.9 00:20:08 10° WNW 00:30:04 75° SSW 00:36:03 27° SE visible
30 Jul 9.5 02:25:48 10° WNW 02:34:06 33° SW 02:34:14 33° SW visible
30 Jul 9.2 21:52:56 10° W 22:03:07 83° N 22:12:58 10° E visible
30 Jul 9.0 23:58:28 10° WNW 00:08:26 77° SSW 00:14:23 27° ESE visible
31 Jul 9.5 02:04:04 10° WNW 02:12:32 34° SW 02:12:35 34° SW visible
31 Jul 9.2 21:31:16 10° W 21:41:26 83° N 21:51:19 10° E visible
31 Jul 9.0 23:36:46 10° WNW 23:46:48 79° SSW 23:52:55 27° ESE visible
01 Aug 9.5 01:42:21 10° WNW 01:50:58 36° SW 01:51:08 36° SW visible
01 Aug 9.3 21:09:34 10° W 21:19:46 83° N 21:29:41 10° E visible
01 Aug 9.0 23:15:06 10° WNW 23:25:09 80° SSW 23:31:37 25° ESE visible
